Starlink 1557

operational
NORAD ID: 46034 Int'l Des: 2020-055 Owner: SPXS Country: US Constellation: starlink
LEOCIRCULARSTARLINK_TYPE

Starlink 1557について

説明を読み込み中...

リアルタイム位置

3D地球を読み込み中...

次回通過

高度履歴

Altitude vs Time

uPlot chart will show altitude changes over time

軌道要素

1 46034U 20055H 25303.36829479 .00000027 00000-0 20712-4 0 9995
2 46034 53.0554 351.6543 0001349 85.5929 274.5215 15.06400973289227
Epoch: Oct 30, 2025 • Age: 25 hours

現在のステータス

高度 554.9 km
速度 7.58 km/s
衛星直下点 -24.84°S, 134.04°E
打ち上げ日 Aug 7, 2020
運用期間 5.2 years
タイプ internet

技術仕様

分類 Payload
質量 260.00 kg
乾燥質量 248.00 kg
総質量 260.00 kg
長さ 0.20 m
直径 2.80 m
スパン 9.00 m
形状 Box + pan
製造者 SPXS
バスタイプ Starlink
フェーズステータス In Orbit
所有者/国 SPXS/US

大規模コンステレーション

Loading constellations...